Regional Weather Roundup
Issued by NWS Burlington, VT

Home | Current Version | Previous Version | Text Only | Print | Product List | Glossary On
Versions: 1 2 3 4 5 6 7 8 9 10 11 12 13 14 15 16 17 18 19 20 21 22 23 24 25 26 27 28 29 30 31 32 33 34 35 36 37 38 39 40 41 42 43 44 45 46 47 48 49 50
000
ASUS41 KBTV 240030
RWRBTV
VERMONT REGIONAL WEATHER ROUNDUP
NATIONAL WEATHER SERVICE BURLINGTON VT
800 PM EDT FRI JUN 23 2017

NOTE: "FAIR" INDICATES FEW OR NO CLOUDS BELOW 12,000 FEET WITH NO
SIGNIFICANT WEATHER AND/OR OBSTRUCTIONS TO VISIBILITY.

* THESE REPORTS ARE NOT UNDER NWS QUALITY CONTROL AND/OR DO NOT
  REPORT WEATHER SUCH AS PRECIPITATION AND FOG.

VTZ001>019-240100-
_____VERMONT_____


CITY           SKY/WX    TMP DP  RH WIND       PRES   REMARKS
BURLINGTON     CLOUDY    75  70  84 S8        29.51S
6HR MIN TEMP:  73; 6HR MAX TEMP:  82; 6HR PCP:  0.19;

MONTPELIER     CLOUDY    72  71  97 S5        29.59F
6HR MIN TEMP:  71; 6HR MAX TEMP:  82; 6HR PCP:  0.51;

MORRISVILLE    PTCLDY    69  68  96 CALM      29.54F
6HR MIN TEMP:  69; 6HR MAX TEMP:  81; 6HR PCP:  0.45;

ST. JOHNSBURY*   N/A     73  73 100 MISG      29.53S
6HR MIN TEMP:  73; 6HR MAX TEMP:  82; 6HR PCP:  0.13;

LYNDONVILLE*   RAIN      71  69  95 SE5       29.58F
6HR MIN TEMP:  71; 6HR MAX TEMP:  80;

MIDDLEBURY*    MOCLDY    72  69  91 SE3       29.54S
6HR MIN TEMP:  71; 6HR MAX TEMP:  82; 6HR PCP:  0.55;

RUTLAND*       CLOUDY    73  69  87 E6        29.56F
6HR MIN TEMP:  73; 6HR MAX TEMP:  86; 6HR PCP:  0.02;

SPRINGFIELD    PTCLDY    79  65  62 SW3       29.56S
6HR MIN TEMP:  79; 6HR MAX TEMP:  88;

HIGHGATE*      CLOUDY    71  70  96 CALM      29.50S
6HR MIN TEMP:  71; 6HR MAX TEMP:  78;

NEWPORT*       MOCLDY    69  67  93 S8        29.54F
6HR MIN TEMP:  69; 6HR MAX TEMP:  75;

BENNINGTON     CLOUDY    77  68  73 S7        29.59S
6HR MIN TEMP:  77; 6HR MAX TEMP:  88;

SUTTON*          N/A     70 N/A N/A MISG        N/A
ISLAND POND*     N/A     72 N/A N/A NW1         N/A
GALLUP MILLS*    N/A     70 N/A N/A MISG        N/A
UNION VILLAGE*   N/A     73 N/A N/A MISG        N/A

_____LAKE CHAMPLAIN_____


CITY           SKY/WX    TMP DP  RH WIND       PRES   REMARKS
BURTON ISLAND*   N/A     72  70  94 SW8         N/A
COLCHESTER RF*   N/A     72  70  94 S20         N/A
DIAMOND ISL*     N/A     72  70  94 SW6         N/A

$$

NYZ007-026>031-035-052-083-087-240100-
_____NORTHERN NEW YORK_____


CITY           SKY/WX    TMP DP  RH WIND       PRES   REMARKS
PLATTSBURGH    CLOUDY    69  67  93 CALM      29.50R
6HR MIN TEMP:  69; 6HR MAX TEMP:  78; 6HR PCP:  0.13;

SARANAC LAKE   CLOUDY    69  69 100 SW3       29.56R
6HR MIN TEMP:  68; 6HR MAX TEMP:  76; 6HR PCP:  0.26;

MASSENA        CLOUDY    73  71  93 W9        29.50S
6HR MIN TEMP:  73; 6HR MAX TEMP:  77; 6HR PCP:  0.01;

OGDENSBURG*    MOCLDY    73  70  91 S5        29.50S
6HR MIN TEMP:  73; 6HR MAX TEMP:  77;

POTSDAM*       CLOUDY    72  72 100 SW5       29.51F
STARK FALLS*     N/A     70 N/A N/A W6          N/A
WATERTOWN      CLOUDY    71  71 100 W5        29.50F FOG
6HR MIN TEMP:  71; 6HR MAX TEMP:  75; 6HR PCP:  0.93;

FT DRUM        DRIZZLE   72  70  94 CALM      29.51F
6HR MIN TEMP:  71; 6HR MAX TEMP:  76; 6HR PCP:  0.67;

ALBANY         MOCLDY    77  70  79 S9        29.57R
6HR MIN TEMP:  77; 6HR MAX TEMP:  86; 6HR PCP: TRACE;

GLENS FALLS    MOCLDY    75  71  87 S5        29.55R
6HR MIN TEMP:  75; 6HR MAX TEMP:  83; 6HR PCP:  0.02;


$$
NHZ002-005-011-240100-
_____NEW HAMPSHIRE_____


CITY           SKY/WX    TMP DP  RH WIND       PRES   REMARKS
LEBANON        CLOUDY    80  69  69 SW3       29.54S
6HR MIN TEMP:  80; 6HR MAX TEMP:  89; 6HR PCP: TRACE;

KEENE          MOCLDY    77  70  79 S13       29.58S
6HR MIN TEMP:  77; 6HR MAX TEMP:  88;

MT WASHINGTON  FOG       55  55 100 SW28G36     N/A  VSB 0
6HR MIN TEMP:  53; 6HR MAX TEMP:  57; 6HR PCP:  0.02;

PLYMOUTH       CLOUDY    74  72  93 CALM      29.55F FOG
6HR MIN TEMP:  74; 6HR MAX TEMP:  83; 6HR PCP:  0.07;

WHITEFIELD     LGT RAIN  75  67  76 S6        29.57S
6HR MIN TEMP:  75; 6HR MAX TEMP:  84; 6HR PCP: TRACE;


$$

_____REGIONAL QUEBEC LOCATIONS_____


CITY           SKY/WX    TMP DP  RH WIND       PRES   REMARKS
MONTREAL       LGT RAIN  72  70  94 SW8       29.47S
QUEBEC CITY    CLOUDY    64  64 100 NE7       29.48F FOG
SHERBROOKE     LGT RAIN  72  70  94 E5        29.51F

_____REGIONAL ONTARIO LOCATIONS_____


CITY           SKY/WX    TMP DP  RH WIND       PRES   REMARKS
OTTAWA         CLOUDY    72  70  94 S5        29.47F

______KEY______
VSB  - VISIBILITY IN MILES
WCI  - WIND CHILL INDEX
HX   - HEAT INDEX
$$
NNNN




USA.gov is the U.S. government's official web portal to all federal, state and local government web resources and services.